| time (UTC) | temp F | wind direction | speed MPH | gust MPH | rain 1hr in | rain 24hr in | rain mn in | humidity % | barometer mb |
| 20260510220457 | 72 | 328 | 2.0 | 6.0 | 0.00 | 0.01 | 0.01 | 39 | 1017.2 |
| 20260510215957 | 72 | 1 | 2.0 | 8.0 | 0.00 | 0.01 | 0.01 | 39 | 1017.2 |
| 20260510215518 | 71 | 11 | 3.0 | 8.0 | 0.00 | 0.01 | 0.01 | 40 | 1017.2 |
| 20260510215018 | 72 | 5 | 3.0 | 8.0 | 0.00 | 0.01 | 0.01 | 38 | 1017.2 |
| 20260510214457 | 72 | 355 | 3.0 | 8.0 | 0.00 | 0.01 | 0.01 | 42 | 1017.2 |
| 20260510213956 | 72 | 337 | 3.0 | 8.0 | 0.00 | 0.01 | 0.01 | 40 | 1017.2 |
| 20260510213457 | 72 | 274 | 2.0 | 6.0 | 0.00 | 0.01 | 0.01 | 40 | 1017.0 |
| 20260510212957 | 72 | 297 | 2.0 | 7.0 | 0.00 | 0.01 | 0.01 | 40 | 1017.0 |
| 20260510212457 | 72 | 325 | 3.0 | 11.0 | 0.00 | 0.01 | 0.01 | 41 | 1017.0 |
| 20260510211957 | 72 | 309 | 3.0 | 11.0 | 0.00 | 0.01 | 0.01 | 40 | 1016.9 |
| 20260510211457 | 72 | 319 | 2.0 | 9.0 | 0.00 | 0.01 | 0.01 | 39 | 1016.8 |
| 20260510210957 | 72 | 317 | 2.0 | 5.0 | 0.00 | 0.01 | 0.01 | 39 | 1016.8 |
| 20260510210457 | 72 | 275 | 2.0 | 6.0 | 0.00 | 0.01 | 0.01 | 40 | 1016.8 |
| 20260510205957 | 72 | 266 | 2.0 | 6.0 | 0.00 | 0.01 | 0.01 | 39 | 1016.7 |
| 20260510205457 | 72 | 260 | 2.0 | 9.0 | 0.00 | 0.01 | 0.01 | 39 | 1016.6 |
| 20260510204957 | 72 | 282 | 2.0 | 9.0 | 0.00 | 0.01 | 0.01 | 39 | 1016.5 |
| 20260510204457 | 72 | 320 | 2.0 | 5.0 | 0.00 | 0.01 | 0.01 | 37 | 1016.5 |
| 20260510203957 | 72 | 354 | 2.0 | 5.0 | 0.00 | 0.01 | 0.01 | 39 | 1016.6 |
| 20260510203518 | 73 | 355 | 2.0 | 5.0 | 0.00 | 0.01 | 0.01 | 39 | 1016.6 |
| 20260510202957 | 73 | 335 | 2.0 | 4.0 | 0.00 | 0.01 | 0.01 | 39 | 1016.7 |
| 20260510202518 | 72 | 332 | 2.0 | 5.0 | 0.00 | 0.01 | 0.01 | 43 | 1016.7 |
| 20260510202018 | 72 | 349 | 3.0 | 10.0 | 0.00 | 0.01 | 0.01 | 40 | 1016.8 |
| 20260510201457 | 72 | 12 | 3.0 | 10.0 | 0.00 | 0.01 | 0.01 | 42 | 1017.0 |
| 20260510200957 | 72 | 14 | 3.0 | 8.0 | 0.00 | 0.01 | 0.01 | 38 | 1017.0 |
| 20260510200518 | 72 | 345 | 3.0 | 8.0 | 0.00 | 0.01 | 0.01 | 37 | 1017.0 |
| 20260510200018 | 72 | 347 | 2.0 | 7.0 | 0.00 | 0.01 | 0.01 | 40 | 1017.0 |
| 20260510195518 | 72 | 4 | 2.0 | 9.0 | 0.00 | 0.01 | 0.01 | 39 | 1017.1 |
| 20260510194957 | 72 | 359 | 3.0 | 9.0 | 0.00 | 0.01 | 0.01 | 40 | 1017.1 |
| 20260510194518 | 72 | 353 | 3.0 | 8.0 | 0.00 | 0.01 | 0.01 | 41 | 1017.0 |
| 20260510193957 | 72 | 348 | 3.0 | 9.0 | 0.00 | 0.01 | 0.01 | 42 | 1017.0 |
| 20260510193457 | 71 | 348 | 3.0 | 9.0 | 0.00 | 0.01 | 0.01 | 41 | 1017.0 |
| 20260510192957 | 71 | 309 | 2.0 | 6.0 | 0.00 | 0.01 | 0.01 | 42 | 1017.0 |
| 20260510192457 | 71 | 334 | 3.0 | 12.0 | 0.00 | 0.01 | 0.01 | 40 | 1017.0 |
| 20260510192018 | 72 | 11 | 3.0 | 12.0 | 0.00 | 0.01 | 0.01 | 41 | 1017.0 |
| 20260510191458 | 72 | 17 | 3.0 | 9.0 | 0.00 | 0.01 | 0.01 | 41 | 1017.1 |
| 20260510190957 | 71 | 321 | 3.0 | 9.0 | 0.00 | 0.01 | 0.01 | 41 | 1017.0 |
| 20260510190457 | 72 | 325 | 2.0 | 7.0 | 0.00 | 0.01 | 0.01 | 42 | 1017.0 |
| 20260510185957 | 71 | 1 | 3.0 | 9.0 | 0.00 | 0.01 | 0.01 | 41 | 1017.0 |
| 20260510185457 | 71 | 3 | 3.0 | 9.0 | 0.00 | 0.01 | 0.01 | 42 | 1017.0 |
| 20260510184957 | 72 | 330 | 2.0 | 8.0 | 0.00 | 0.01 | 0.01 | 42 | 1016.9 |
| 20260510184457 | 71 | 335 | 3.0 | 8.0 | 0.00 | 0.01 | 0.01 | 40 | 1016.9 |
| 20260510184018 | 72 | 2 | 3.0 | 8.0 | 0.00 | 0.01 | 0.01 | 41 | 1016.9 |
| 20260510183457 | 71 | 353 | 3.0 | 8.0 | 0.00 | 0.01 | 0.01 | 42 | 1016.8 |
| 20260510183018 | 71 | 331 | 2.0 | 8.0 | 0.00 | 0.01 | 0.01 | 41 | 1017.0 |
| 20260510182457 | 71 | 351 | 2.0 | 4.0 | 0.00 | 0.01 | 0.01 | 43 | 1016.9 |
| 20260510181957 | 71 | 6 | 2.0 | 6.0 | 0.00 | 0.01 | 0.01 | 45 | 1017.1 |
| 20260510181518 | 70 | 6 | 3.0 | 8.0 | 0.00 | 0.01 | 0.01 | 44 | 1017.1 |
| 20260510180957 | 70 | 6 | 3.0 | 8.0 | 0.00 | 0.01 | 0.01 | 44 | 1017.2 |
| 20260510180457 | 70 | 2 | 3.0 | 8.0 | 0.00 | 0.01 | 0.01 | 43 | 1017.1 |
| 20260510175957 | 70 | 349 | 3.0 | 8.0 | 0.00 | 0.01 | 0.01 | 44 | 1017.2 |
| 20260510175458 | 70 | 353 | 3.0 | 9.0 | 0.00 | 0.01 | 0.01 | 44 | 1017.0 |
| 20260510174957 | 70 | 357 | 3.0 | 9.0 | 0.00 | 0.01 | 0.01 | 45 | 1017.2 |
| 20260510174518 | 70 | 350 | 3.0 | 8.0 | 0.00 | 0.01 | 0.01 | 43 | 1017.2 |
| 20260510173957 | 70 | 7 | 2.0 | 8.0 | 0.00 | 0.01 | 0.01 | 44 | 1017.2 |
| 20260510173519 | 70 | 17 | 2.0 | 8.0 | 0.00 | 0.01 | 0.01 | 49 | 1017.2 |
| 20260510172957 | 70 | 5 | 3.0 | 8.0 | 0.00 | 0.01 | 0.01 | 44 | 1017.3 |
| 20260510172457 | 70 | 360 | 2.0 | 8.0 | 0.00 | 0.01 | 0.01 | 43 | 1017.3 |
| 20260510171957 | 69 | 8 | 3.0 | 9.0 | 0.00 | 0.01 | 0.01 | 43 | 1017.4 |
| 20260510171457 | 69 | 17 | 3.0 | 9.0 | 0.00 | 0.01 | 0.01 | 44 | 1017.3 |
| 20260510171018 | 69 | 7 | 2.0 | 9.0 | 0.00 | 0.01 | 0.01 | 45 | 1017.0 |
| 20260510170457 | 69 | 311 | 3.0 | 8.0 | 0.00 | 0.01 | 0.01 | 47 | 1017.0 |
| 20260510165957 | 69 | 340 | 2.0 | 10.0 | 0.00 | 0.01 | 0.01 | 45 | 1017.0 |
| 20260510165518 | 70 | 7 | 3.0 | 10.0 | 0.00 | 0.01 | 0.01 | 42 | 1016.9 |
| 20260510164957 | 70 | 16 | 3.0 | 8.0 | 0.00 | 0.01 | 0.01 | 44 | 1017.1 |
| 20260510164457 | 70 | 20 | 3.0 | 15.0 | 0.00 | 0.01 | 0.01 | 45 | 1017.0 |
| 20260510163957 | 70 | 3 | 3.0 | 15.0 | 0.00 | 0.01 | 0.01 | 44 | 1016.9 |
| 20260510163518 | 70 | 1 | 3.0 | 14.0 | 0.00 | 0.01 | 0.01 | 45 | 1017.1 |
| 20260510162957 | 69 | 16 | 3.0 | 14.0 | 0.00 | 0.01 | 0.01 | 45 | 1017.1 |
| 20260510162519 | 69 | 16 | 3.0 | 7.0 | 0.00 | 0.01 | 0.01 | 45 | 1017.1 |
| 20260510161957 | 69 | 20 | 3.0 | 9.0 | 0.00 | 0.01 | 0.01 | 45 | 1017.2 |
| 20260510161457 | 69 | 32 | 2.0 | 9.0 | 0.00 | 0.01 | 0.01 | 46 | 1017.2 |
| 20260510160957 | 69 | 26 | 2.0 | 7.0 | 0.00 | 0.01 | 0.01 | 44 | 1017.0 |
| 20260510160457 | 68 | 23 | 3.0 | 7.0 | 0.00 | 0.01 | 0.01 | 45 | 1017.1 |
| 20260510155957 | 68 | 13 | 3.0 | 7.0 | 0.00 | 0.01 | 0.01 | 46 | 1017.0 |
| 20260510155458 | 68 | 6 | 4.0 | 10.0 | 0.00 | 0.01 | 0.01 | 44 | 1017.0 |
| 20260510154957 | 67 | 1 | 3.0 | 10.0 | 0.00 | 0.01 | 0.01 | 45 | 1016.7 |
| 20260510154457 | 68 | 357 | 2.0 | 9.0 | 0.00 | 0.01 | 0.01 | 45 | 1016.7 |
| 20260510153958 | 67 | 3 | 3.0 | 8.0 | 0.00 | 0.01 | 0.01 | 46 | 1016.8 |
| 20260510153457 | 67 | 358 | 4.0 | 8.0 | 0.00 | 0.01 | 0.01 | 44 | 1017.0 |
| 20260510152957 | 67 | 6 | 4.0 | 9.0 | 0.00 | 0.01 | 0.01 | 44 | 1017.0 |
| 20260510152458 | 67 | 16 | 4.0 | 9.0 | 0.00 | 0.01 | 0.01 | 47 | 1016.9 |
| 20260510151957 | 67 | 10 | 3.0 | 8.0 | 0.00 | 0.01 | 0.01 | 47 | 1016.9 |
| 20260510151518 | 67 | 14 | 3.0 | 8.0 | 0.00 | 0.01 | 0.01 | 50 | 1016.8 |
| 20260510150957 | 66 | 19 | 3.0 | 6.0 | 0.00 | 0.01 | 0.01 | 50 | 1016.7 |
| 20260510150457 | 66 | 13 | 3.0 | 6.0 | 0.00 | 0.01 | 0.01 | 48 | 1016.7 |
| 20260510145957 | 66 | 23 | 3.0 | 7.0 | 0.00 | 0.01 | 0.01 | 50 | 1016.6 |
| 20260510145458 | 65 | 27 | 3.0 | 7.0 | 0.00 | 0.01 | 0.01 | 54 | 1016.4 |
| 20260510144957 | 65 | 7 | 4.0 | 11.0 | 0.00 | 0.01 | 0.01 | 52 | 1016.2 |
| 20260510144457 | 65 | 2 | 4.0 | 11.0 | 0.00 | 0.01 | 0.01 | 50 | 1016.5 |
| 20260510143957 | 64 | 10 | 3.0 | 9.0 | 0.00 | 0.01 | 0.01 | 52 | 1016.4 |
| 20260510143519 | 64 | 14 | 3.0 | 9.0 | 0.00 | 0.01 | 0.01 | 55 | 1016.3 |
| 20260510142957 | 64 | 12 | 3.0 | 10.0 | 0.00 | 0.01 | 0.01 | 53 | 1016.3 |
| 20260510142457 | 63 | 1 | 3.0 | 10.0 | 0.00 | 0.01 | 0.01 | 55 | 1016.2 |
| 20260510141957 | 63 | 356 | 3.0 | 9.0 | 0.00 | 0.01 | 0.01 | 55 | 1016.1 |
| 20260510141519 | 63 | 9 | 3.0 | 9.0 | 0.00 | 0.01 | 0.01 | 58 | 1016.1 |
| 20260510140957 | 63 | 16 | 2.0 | 8.0 | 0.00 | 0.01 | 0.01 | 57 | 1016.0 |
| 20260510140457 | 62 | 358 | 3.0 | 8.0 | 0.00 | 0.01 | 0.01 | 58 | 1015.9 |
| 20260510135957 | 62 | 356 | 4.0 | 8.0 | 0.00 | 0.01 | 0.01 | 59 | 1016.0 |
| 20260510135457 | 63 | 360 | 3.0 | 8.0 | 0.00 | 0.01 | 0.01 | 59 | 1015.9 |
| 20260510134957 | 63 | 22 | 2.0 | 8.0 | 0.00 | 0.01 | 0.01 | 62 | 1015.8 |
| 20260510134458 | 62 | 49 | 2.0 | 5.0 | 0.00 | 0.01 | 0.01 | 63 | 1015.7 |
| 20260510133957 | 62 | 48 | 2.0 | 5.0 | 0.00 | 0.01 | 0.01 | 62 | 1015.6 |
| 20260510133457 | 61 | 29 | 2.0 | 7.0 | 0.00 | 0.01 | 0.01 | 63 | 1015.5 |
| 20260510132958 | 61 | 5 | 3.0 | 7.0 | 0.00 | 0.01 | 0.01 | 65 | 1015.5 |
| 20260510132457 | 61 | 5 | 3.0 | 6.0 | 0.00 | 0.01 | 0.01 | 66 | 1015.2 |
| 20260510131957 | 60 | 28 | 2.0 | 6.0 | 0.00 | 0.01 | 0.01 | 66 | 1015.1 |
| 20260510131458 | 60 | 21 | 2.0 | 6.0 | 0.00 | 0.01 | 0.01 | 67 | 1015.1 |
| 20260510130958 | 60 | 7 | 3.0 | 8.0 | 0.00 | 0.01 | 0.01 | 68 | 1015.0 |
| 20260510130518 | 60 | 4 | 2.0 | 8.0 | 0.00 | 0.01 | 0.01 | 69 | 1014.9 |
| 20260510130019 | 59 | 20 | 2.0 | 6.0 | 0.00 | 0.01 | 0.01 | 71 | 1014.9 |
| 20260510125457 | 59 | 21 | 2.0 | 8.0 | 0.00 | 0.01 | 0.01 | 71 | 1014.8 |
| 20260510125018 | 59 | 6 | 3.0 | 8.0 | 0.00 | 0.01 | 0.01 | 73 | 1014.7 |
| 20260510124457 | 59 | 3 | 3.0 | 8.0 | 0.00 | 0.01 | 0.01 | 72 | 1014.6 |
| 20260510123958 | 58 | 4 | 2.0 | 5.0 | 0.00 | 0.01 | 0.01 | 72 | 1014.6 |
| 20260510123457 | 58 | 8 | 2.0 | 5.0 | 0.00 | 0.01 | 0.01 | 74 | 1014.5 |
| 20260510122957 | 58 | 12 | 2.0 | 5.0 | 0.00 | 0.01 | 0.01 | 74 | 1014.4 |
| 20260510122458 | 58 | 8 | 2.0 | 6.0 | 0.00 | 0.01 | 0.01 | 74 | 1014.3 |
| 20260510121957 | 58 | 10 | 2.0 | 6.0 | 0.00 | 0.01 | 0.01 | 75 | 1014.2 |
| 20260510121457 | 57 | 8 | 2.0 | 6.0 | 0.00 | 0.01 | 0.01 | 78 | 1014.1 |
| 20260510120958 | 57 | 7 | 2.0 | 6.0 | 0.00 | 0.01 | 0.01 | 78 | 1014.0 |
| 20260510120457 | 56 | 20 | 1.0 | 5.0 | 0.00 | 0.02 | 0.01 | 79 | 1013.9 |
| 20260510115957 | 56 | 27 | 1.0 | 4.0 | 0.00 | 0.02 | 0.01 | 79 | 1013.8 |
| 20260510115458 | 56 | 22 | 1.0 | 4.0 | 0.01 | 0.02 | 0.01 | 79 | 1013.7 |
| 20260510114957 | 56 | 15 | 1.0 | 3.0 | 0.01 | 0.02 | 0.01 | 80 | 1013.6 |
| 20260510114457 | 56 | 19 | 1.0 | 3.0 | 0.01 | 0.02 | 0.01 | 80 | 1013.6 |
| 20260510113957 | 56 | 13 | 1.0 | 4.0 | 0.01 | 0.02 | 0.01 | 80 | 1013.5 |
| 20260510113458 | 56 | 17 | 1.0 | 4.0 | 0.01 | 0.02 | 0.01 | 81 | 1013.5 |
| 20260510112957 | 56 | 22 | 1.0 | 4.0 | 0.01 | 0.02 | 0.01 | 80 | 1013.5 |
| 20260510112457 | 56 | 11 | 1.0 | 4.0 | 0.01 | 0.02 | 0.01 | 79 | 1013.4 |
| 20260510112018 | 56 | 13 | 1.0 | 4.0 | 0.01 | 0.02 | 0.01 | 79 | 1013.4 |
| 20260510111458 | 57 | 12 | 1.0 | 2.0 | 0.01 | 0.02 | 0.01 | 79 | 1013.4 |
| 20260510110957 | 57 | 354 | 0.0 | 2.0 | 0.01 | 0.02 | 0.01 | 78 | 1013.5 |
| 20260510110458 | 58 | 327 | 0.0 | 2.0 | 0.01 | 0.02 | 0.01 | 76 | 1013.7 |
| 20260510105958 | 58 | 356 | 1.0 | 6.0 | 0.01 | 0.02 | 0.01 | 75 | 1013.8 |
| 20260510105457 | 58 | 358 | 1.0 | 6.0 | 0.00 | 0.01 | 0.00 | 74 | 1013.6 |
| 20260510105019 | 58 | 342 | 1.0 | 3.0 | 0.00 | 0.01 | 0.00 | 74 | 1013.6 |
| 20260510104458 | 58 | 332 | 1.0 | 3.0 | 0.00 | 0.01 | 0.00 | 75 | 1013.5 |
| 20260510104018 | 58 | 332 | 1.0 | 5.0 | 0.00 | 0.01 | 0.00 | 75 | 1013.5 |
| 20260510103458 | 58 | 359 | 1.0 | 5.0 | 0.00 | 0.01 | 0.00 | 74 | 1013.4 |
| 20260510102958 | 58 | 17 | 1.0 | 4.0 | 0.00 | 0.01 | 0.00 | 75 | 1013.0 |
| 20260510102458 | 58 | 7 | 1.0 | 8.0 | 0.00 | 0.01 | 0.00 | 75 | 1012.8 |
| 20260510102018 | 59 | 3 | 2.0 | 8.0 | 0.00 | 0.01 | 0.00 | 77 | 1012.7 |
| 20260510101458 | 59 | 1 | 2.0 | 5.0 | 0.00 | 0.02 | 0.00 | 77 | 1012.5 |
| 20260510100958 | 59 | 355 | 2.0 | 5.0 | 0.00 | 0.02 | 0.00 | 77 | 1012.5 |
| 20260510100457 | 59 | 347 | 1.0 | 5.0 | 0.00 | 0.03 | 0.00 | 78 | 1012.4 |
| 20260510095957 | 59 | 336 | 1.0 | 7.0 | 0.00 | 0.03 | 0.00 | 80 | 1012.5 |
| 20260510095519 | 59 | 341 | 1.0 | 7.0 | 0.00 | 0.03 | 0.00 | 80 | 1012.3 |
| 20260510094958 | 58 | 321 | 1.0 | 4.0 | 0.00 | 0.04 | 0.00 | 82 | 1012.2 |
| 20260510094457 | 58 | 295 | 1.0 | 4.0 | 0.00 | 0.04 | 0.00 | 83 | 1012.2 |
| 20260510093957 | 57 | 310 | 0.0 | 4.0 | 0.00 | 0.05 | 0.00 | 85 | 1012.1 |
| 20260510093458 | 56 | 0 | 0.0 | 0.0 | 0.00 | 0.05 | 0.00 | 85 | 1012.0 |
| 20260510093019 | 56 | 0 | 0.0 | 0.0 | 0.00 | 0.05 | 0.00 | 85 | 1012.0 |
| 20260510092457 | 56 | 0 | 0.0 | 0.0 | 0.00 | 0.05 | 0.00 | 85 | 1012.1 |
| 20260510091958 | 56 | 0 | 0.0 | 0.0 | 0.00 | 0.05 | 0.00 | 85 | 1012.0 |
| 20260510091458 | 56 | 0 | 0.0 | 0.0 | 0.00 | 0.05 | 0.00 | 85 | 1011.8 |
| 20260510090957 | 56 | 0 | 0.0 | 0.0 | 0.00 | 0.05 | 0.00 | 84 | 1011.8 |
| 20260510090457 | 56 | 0 | 0.0 | 0.0 | 0.00 | 0.06 | 0.00 | 84 | 1011.8 |
| 20260510085958 | 56 | 36 | 0.0 | 1.0 | 0.00 | 0.06 | 0.00 | 84 | 1011.8 |
| 20260510085518 | 56 | 36 | 0.0 | 1.0 | 0.00 | 0.07 | 0.00 | 83 | 1011.6 |
| 20260510085018 | 56 | 36 | 0.0 | 1.0 | 0.00 | 0.07 | 0.00 | 83 | 1011.6 |
| 20260510084458 | 56 | 36 | 0.0 | 1.0 | 0.00 | 0.07 | 0.00 | 83 | 1011.6 |
| 20260510083958 | 56 | 36 | 0.0 | 1.0 | 0.00 | 0.07 | 0.00 | 82 | 1011.5 |
| 20260510083458 | 56 | 36 | 0.0 | 1.0 | 0.00 | 0.07 | 0.00 | 82 | 1011.5 |
| 20260510083019 | 57 | 36 | 0.0 | 1.0 | 0.00 | 0.07 | 0.00 | 81 | 1011.6 |
| 20260510082458 | 57 | 36 | 0.0 | 1.0 | 0.00 | 0.08 | 0.00 | 80 | 1011.5 |
| 20260510082018 | 57 | 36 | 0.0 | 1.0 | 0.00 | 0.08 | 0.00 | 80 | 1011.6 |
| 20260510081518 | 58 | 54 | 0.0 | 2.0 | 0.00 | 0.08 | 0.00 | 80 | 1011.6 |
| 20260510081018 | 58 | 28 | 1.0 | 3.0 | 0.00 | 0.09 | 0.00 | 79 | 1011.4 |
| 20260510080458 | 58 | 350 | 0.0 | 3.0 | 0.00 | 0.09 | 0.00 | 78 | 1011.2 |
| 20260510080019 | 58 | 342 | 0.0 | 1.0 | 0.00 | 0.09 | 0.00 | 78 | 1011.0 |
| 20260510075458 | 58 | 357 | 1.0 | 4.0 | 0.00 | 0.09 | 0.00 | 78 | 1011.0 |
| 20260510074958 | 58 | 357 | 1.0 | 5.0 | 0.00 | 0.09 | 0.00 | 78 | 1010.9 |
| 20260510074458 | 58 | 358 | 1.0 | 5.0 | 0.00 | 0.09 | 0.00 | 79 | 1010.8 |
| 20260510073958 | 58 | 355 | 0.0 | 5.0 | 0.00 | 0.10 | 0.00 | 79 | 1010.8 |
| 20260510073457 | 58 | 307 | 0.0 | 1.0 | 0.00 | 0.10 | 0.00 | 79 | 1010.5 |
| 20260510072957 | 58 | 307 | 0.0 | 1.0 | 0.00 | 0.10 | 0.00 | 79 | 1010.3 |
| 20260510072458 | 58 | 307 | 0.0 | 1.0 | 0.00 | 0.10 | 0.00 | 78 | 1010.4 |
| 20260510071958 | 58 | 307 | 0.0 | 2.0 | 0.00 | 0.10 | 0.00 | 78 | 1010.5 |
| 20260510071519 | 58 | 308 | 0.0 | 2.0 | 0.00 | 0.11 | 0.00 | 77 | 1010.5 |
| 20260510070958 | 58 | 311 | 0.0 | 1.0 | 0.00 | 0.11 | 0.00 | 77 | 1010.5 |
| 20260510070518 | 59 | 311 | 0.0 | 1.0 | 0.00 | 0.11 | 0.00 | 77 | 1010.5 |
| 20260510065957 | 59 | 300 | 0.0 | 1.0 | 0.00 | 0.11 | 0.00 | 77 | 1010.6 |
| 20260510065519 | 59 | 250 | 0.0 | 1.0 | 0.00 | 0.11 | 0.00 | 77 | 1010.7 |
| 20260510064958 | 59 | 0 | 0.0 | 0.0 | 0.00 | 0.11 | 0.00 | 76 | 1010.6 |
| 20260510064458 | 60 | 250 | 0.0 | 1.0 | 0.00 | 0.11 | 0.00 | 76 | 1010.5 |
| 20260510063957 | 60 | 250 | 0.0 | 1.0 | 0.00 | 0.11 | 0.00 | 75 | 1010.7 |
| 20260510063457 | 60 | 250 | 0.0 | 2.0 | 0.00 | 0.12 | 0.00 | 75 | 1010.7 |
| 20260510062957 | 60 | 252 | 0.0 | 2.0 | 0.00 | 0.12 | 0.00 | 75 | 1010.8 |
| 20260510062458 | 60 | 255 | 0.0 | 2.0 | 0.00 | 0.12 | 0.00 | 75 | 1010.8 |
| 20260510061957 | 60 | 244 | 0.0 | 2.0 | 0.00 | 0.12 | 0.00 | 75 | 1010.8 |
| 20260510061457 | 60 | 243 | 0.0 | 2.0 | 0.00 | 0.12 | 0.00 | 75 | 1010.8 |
| 20260510060958 | 60 | 254 | 0.0 | 1.0 | 0.00 | 0.13 | 0.00 | 76 | 1010.9 |
| 20260510060458 | 59 | 254 | 0.0 | 1.0 | 0.00 | 0.13 | 0.00 | 76 | 1010.9 |
| 20260510060018 | 59 | 254 | 0.0 | 2.0 | 0.00 | 0.13 | 0.00 | 76 | 1010.9 |
| 20260510055458 | 59 | 254 | 0.0 | 2.0 | 0.00 | 0.13 | 0.00 | 76 | 1010.9 |
| 20260510054958 | 59 | 254 | 0.0 | 2.0 | 0.00 | 0.13 | 0.00 | 77 | 1010.9 |
| 20260510054519 | 59 | 254 | 0.0 | 2.0 | 0.00 | 0.13 | 0.00 | 77 | 1010.9 |
| 20260510054019 | 59 | 253 | 0.0 | 1.0 | 0.00 | 0.13 | 0.00 | 77 | 1010.9 |
| 20260510053458 | 58 | 252 | 0.0 | 1.0 | 0.00 | 0.13 | 0.00 | 78 | 1010.9 |
| 20260510052958 | 58 | 252 | 0.0 | 1.0 | 0.00 | 0.13 | 0.00 | 78 | 1010.8 |
| 20260510052458 | 58 | 252 | 0.0 | 1.0 | 0.00 | 0.13 | 0.00 | 79 | 1010.8 |
| 20260510051957 | 58 | 252 | 0.0 | 1.0 | 0.00 | 0.13 | 0.00 | 79 | 1010.8 |
| 20260510051458 | 57 | 252 | 0.0 | 1.0 | 0.00 | 0.13 | 0.00 | 80 | 1010.9 |
| 20260510051019 | 57 | 252 | 0.0 | 1.0 | 0.00 | 0.13 | 0.00 | 81 | 1010.9 |
| 20260510050458 | 57 | 252 | 0.0 | 1.0 | 0.00 | 0.13 | 0.00 | 81 | 1010.9 |
| 20260510045958 | 57 | 252 | 0.0 | 1.0 | 0.00 | 0.13 | 0.00 | 81 | 1010.9 |
| 20260510045519 | 57 | 252 | 0.0 | 1.0 | 0.00 | 0.13 | 0.00 | 81 | 1010.9 |
| 20260510044958 | 57 | 252 | 0.0 | 1.0 | 0.00 | 0.13 | 0.00 | 81 | 1010.9 |
| 20260510044457 | 57 | 252 | 0.0 | 1.0 | 0.00 | 0.13 | 0.00 | 81 | 1011.0 |
| 20260510043958 | 58 | 252 | 0.0 | 1.0 | 0.00 | 0.14 | 0.00 | 81 | 1011.0 |
| 20260510043458 | 58 | 252 | 0.0 | 1.0 | 0.00 | 0.14 | 0.00 | 81 | 1011.1 |
| 20260510042958 | 58 | 252 | 0.0 | 1.0 | 0.00 | 0.14 | 0.00 | 81 | 1011.1 |
| 20260510042458 | 58 | 252 | 0.0 | 1.0 | 0.00 | 0.14 | 0.00 | 81 | 1011.0 |
| 20260510041957 | 58 | 252 | 0.0 | 1.0 | 0.00 | 0.14 | 0.00 | 80 | 1011.0 |
| 20260510041458 | 58 | 252 | 0.0 | 1.0 | 0.00 | 0.14 | 0.00 | 80 | 1010.9 |
| 20260510041019 | 58 | 252 | 0.0 | 1.0 | 0.00 | 0.14 | 0.00 | 80 | 1010.9 |
| 20260510040458 | 58 | 252 | 0.0 | 1.0 | 0.00 | 0.14 | 0.00 | 80 | 1011.0 |
| 20260510035958 | 58 | 252 | 0.0 | 1.0 | 0.00 | 0.14 | 0.00 | 79 | 1010.9 |
| 20260510035457 | 58 | 252 | 0.0 | 1.0 | 0.00 | 0.14 | 0.14 | 79 | 1011.0 |
| 20260510034958 | 58 | 252 | 0.0 | 1.0 | 0.00 | 0.14 | 0.14 | 79 | 1010.9 |
| 20260510034519 | 58 | 252 | 0.0 | 1.0 | 0.00 | 0.14 | 0.14 | 79 | 1010.8 |
| 20260510034019 | 58 | 252 | 0.0 | 1.0 | 0.00 | 0.14 | 0.14 | 79 | 1010.8 |
| 20260510033458 | 58 | 252 | 0.0 | 1.0 | 0.00 | 0.14 | 0.14 | 80 | 1010.8 |
| 20260510032958 | 58 | 252 | 0.0 | 1.0 | 0.00 | 0.14 | 0.14 | 78 | 1010.8 |
| 20260510032458 | 58 | 252 | 0.0 | 1.0 | 0.00 | 0.14 | 0.14 | 79 | 1010.8 |
| 20260510031958 | 59 | 252 | 0.0 | 1.0 | 0.00 | 0.14 | 0.14 | 79 | 1010.8 |
| 20260510031458 | 59 | 252 | 0.0 | 1.0 | 0.00 | 0.14 | 0.14 | 79 | 1010.8 |
| 20260510030958 | 59 | 252 | 0.0 | 1.0 | 0.00 | 0.14 | 0.14 | 79 | 1010.7 |
| 20260510030458 | 59 | 252 | 0.0 | 1.0 | 0.00 | 0.14 | 0.14 | 79 | 1010.7 |
| 20260510025958 | 59 | 252 | 0.0 | 1.0 | 0.00 | 0.14 | 0.14 | 78 | 1010.6 |
| 20260510025458 | 59 | 252 | 0.0 | 1.0 | 0.00 | 0.14 | 0.14 | 77 | 1010.6 |
| 20260510024958 | 59 | 252 | 0.0 | 1.0 | 0.00 | 0.14 | 0.14 | 77 | 1010.6 |
| 20260510024457 | 59 | 252 | 0.0 | 1.0 | 0.00 | 0.14 | 0.14 | 76 | 1010.5 |
| 20260510023957 | 60 | 252 | 0.0 | 1.0 | 0.00 | 0.14 | 0.14 | 77 | 1010.4 |
| 20260510023458 | 60 | 252 | 0.0 | 1.0 | 0.00 | 0.14 | 0.14 | 75 | 1010.4 |
| 20260510023018 | 60 | 252 | 0.0 | 1.0 | 0.00 | 0.14 | 0.14 | 75 | 1010.3 |
| 20260510022457 | 60 | 252 | 0.0 | 1.0 | 0.00 | 0.14 | 0.14 | 73 | 1010.2 |
| 20260510021958 | 60 | 252 | 0.0 | 1.0 | 0.00 | 0.14 | 0.14 | 73 | 1010.2 |
| 20260510021458 | 61 | 252 | 0.0 | 1.0 | 0.00 | 0.14 | 0.14 | 72 | 1010.2 |
| 20260510020957 | 61 | 252 | 0.0 | 1.0 | 0.00 | 0.14 | 0.14 | 73 | 1010.1 |
| 20260510020519 | 61 | 252 | 0.0 | 1.0 | 0.00 | 0.14 | 0.14 | 71 | 1010.1 |
| 20260510015958 | 62 | 252 | 0.0 | 1.0 | 0.00 | 0.14 | 0.14 | 71 | 1010.0 |
| 20260510015458 | 62 | 252 | 0.0 | 1.0 | 0.00 | 0.14 | 0.14 | 71 | 1009.9 |
| 20260510014958 | 62 | 252 | 0.0 | 1.0 | 0.00 | 0.14 | 0.14 | 70 | 1009.8 |
| 20260510014458 | 63 | 252 | 0.0 | 1.0 | 0.00 | 0.14 | 0.14 | 71 | 1009.7 |
| 20260510013957 | 63 | 252 | 0.0 | 1.0 | 0.00 | 0.14 | 0.14 | 69 | 1009.6 |
| 20260510013458 | 64 | 252 | 0.0 | 1.0 | 0.00 | 0.14 | 0.14 | 67 | 1009.5 |
| 20260510013019 | 64 | 252 | 0.0 | 1.0 | 0.00 | 0.14 | 0.14 | 65 | 1009.4 |
| 20260510012458 | 65 | 252 | 0.0 | 1.0 | 0.00 | 0.14 | 0.14 | 65 | 1009.4 |
| 20260510011958 | 65 | 252 | 0.0 | 1.0 | 0.00 | 0.14 | 0.14 | 62 | 1009.3 |
| 20260510011458 | 66 | 252 | 0.0 | 1.0 | 0.00 | 0.14 | 0.14 | 61 | 1009.3 |
| 20260510010958 | 66 | 252 | 0.0 | 1.0 | 0.00 | 0.14 | 0.14 | 60 | 1009.2 |
| 20260510010458 | 67 | 252 | 0.0 | 1.0 | 0.00 | 0.14 | 0.14 | 58 | 1009.1 |
| 20260510010019 | 68 | 252 | 0.0 | 1.0 | 0.00 | 0.14 | 0.14 | 58 | 1009.1 |
| 20260510005457 | 68 | 252 | 0.0 | 1.0 | 0.00 | 0.14 | 0.14 | 56 | 1009.0 |
| 20260510004958 | 69 | 252 | 0.0 | 1.0 | 0.00 | 0.14 | 0.14 | 55 | 1009.0 |
| 20260510004519 | 69 | 261 | 0.0 | 2.0 | 0.00 | 0.14 | 0.14 | 55 | 1008.8 |
| 20260510003958 | 70 | 253 | 0.0 | 2.0 | 0.00 | 0.14 | 0.14 | 53 | 1008.7 |
| 20260510003519 | 70 | 231 | 0.0 | 2.0 | 0.00 | 0.14 | 0.14 | 53 | 1008.7 |
| 20260510002958 | 70 | 229 | 1.0 | 2.0 | 0.00 | 0.14 | 0.14 | 52 | 1008.6 |
| 20260510002459 | 71 | 233 | 1.0 | 4.0 | 0.00 | 0.14 | 0.14 | 51 | 1008.5 |
| 20260510001958 | 71 | 231 | 1.0 | 4.0 | 0.00 | 0.14 | 0.14 | 51 | 1008.4 |
| 20260510001458 | 71 | 227 | 1.0 | 4.0 | 0.00 | 0.14 | 0.14 | 50 | 1008.4 |
| 20260510000958 | 72 | 233 | 1.0 | 4.0 | 0.00 | 0.14 | 0.14 | 50 | 1008.3 |
| 20260510000457 | 72 | 255 | 1.0 | 3.0 | 0.00 | 0.14 | 0.14 | 50 | 1008.2 |
| 20260510000019 | 72 | 273 | 1.0 | 3.0 | 0.00 | 0.14 | 0.14 | 50 | 1008.2 |
| 20260509235458 | 72 | 273 | 1.0 | 3.0 | 0.00 | 0.14 | 0.14 | 50 | 1008.1 |
| 20260509234957 | 73 | 260 | 1.0 | 4.0 | 0.00 | 0.14 | 0.14 | 50 | 1008.1 |
| 20260509234458 | 73 | 227 | 2.0 | 5.0 | 0.00 | 0.14 | 0.14 | 49 | 1007.9 |
| 20260509233958 | 73 | 212 | 2.0 | 6.0 | 0.00 | 0.14 | 0.14 | 48 | 1007.9 |
| 20260509233458 | 73 | 186 | 2.0 | 6.0 | 0.00 | 0.14 | 0.14 | 48 | 1008.0 |
| 20260509233019 | 74 | 205 | 2.0 | 11.0 | 0.00 | 0.14 | 0.14 | 46 | 1007.9 |
| 20260509232458 | 74 | 229 | 2.0 | 11.0 | 0.00 | 0.14 | 0.14 | 46 | 1007.9 |
| 20260509231958 | 74 | 228 | 2.0 | 7.0 | 0.00 | 0.14 | 0.14 | 46 | 1007.8 |
| 20260509231458 | 75 | 231 | 3.0 | 9.0 | 0.00 | 0.14 | 0.14 | 46 | 1007.8 |
| 20260509231019 | 75 | 230 | 3.0 | 10.0 | 0.00 | 0.14 | 0.14 | 45 | 1007.8 |
| 20260509230458 | 75 | 223 | 2.0 | 10.0 | 0.00 | 0.14 | 0.14 | 46 | 1007.8 |
| 20260509225958 | 75 | 189 | 3.0 | 10.0 | 0.00 | 0.14 | 0.14 | 47 | 1007.7 |
| 20260509225458 | 74 | 187 | 3.0 | 10.0 | 0.00 | 0.14 | 0.14 | 47 | 1007.7 |
| 20260509224958 | 75 | 174 | 3.0 | 10.0 | 0.00 | 0.14 | 0.14 | 47 | 1007.8 |
| 20260509224459 | 75 | 168 | 2.0 | 7.0 | 0.00 | 0.14 | 0.14 | 47 | 1007.7 |
| 20260509223958 | 75 | 198 | 2.0 | 9.0 | 0.00 | 0.14 | 0.14 | 47 | 1007.8 |
| 20260509223458 | 75 | 182 | 3.0 | 9.0 | 0.00 | 0.14 | 0.14 | 47 | 1007.7 |
| 20260509222958 | 75 | 163 | 3.0 | 8.0 | 0.00 | 0.14 | 0.14 | 48 | 1007.7 |
| 20260509222519 | 75 | 169 | 3.0 | 11.0 | 0.00 | 0.14 | 0.14 | 47 | 1007.6 |
| 20260509222019 | 75 | 193 | 2.0 | 11.0 | 0.00 | 0.14 | 0.14 | 46 | 1007.7 |
| 20260509221457 | 75 | 228 | 3.0 | 11.0 | 0.00 | 0.14 | 0.14 | 48 | 1007.7 |
| 20260509220958 | 75 | 181 | 3.0 | 11.0 | 0.00 | 0.14 | 0.14 | 48 | 1007.8 |